User: anonymous
Location: Unspecified
(0.0000°N, 0.0000°E)
Time: 04:01:00
(UTC+02:00)
Language:

Iridium 4 Rocket - Orbit

View from above orbital plane
View from above orbital plane
View from above satellite
View from above satellite

Ground track
Ground track

The orbit data is extracted from the following two-line orbital elements,

1 24797U 97020F   14257.34993233  .00000557  00000-0  11406-3 0  7598
2 24797 086.9010 001.9091 0229616 073.2660 346.4058 14.43184394912682
Epoch (UTC): 14 September 2014 08:23:54
Eccentricity: 0.0229616
inclination: 86.9010°
perigee height: 584 km
apogee height: 911 km
right ascension of ascending node: 1.9091°
argument of perigee: 73.2660°
revolutions per day: 14.43184394
mean anomaly at epoch: 346.4058°
orbit number at epoch: 91268

The dashed part of the orbit path shows where the satellite is in the earth's shadow,  

DLR